"Sample Date","Sample Time","Sensor Name","Sample Value","Units","Flow Rate","Sample Interval","Sample Volume","Laser Status","Number Channels","Micron Size 0","Counts/Channel 0","Micron Size 1","Counts/Channel 1","Micron Size 2","Counts/Channel 2","Micron Size 3","Counts/Channel 3","Micron Size 4","Counts/Channel 4","Micron Size 5","Counts/Channel 5","Micron Size 6","Counts/Channel 6","Micron Size 7","Counts/Channel 7","Micron Size 8","Counts/Channel 8","Micron Size 9","Counts/Channel 9","Micron Size 10","Counts/Channel 10","Micron Size 11","Counts/Channel 11","Micron Size 12","Counts/Channel 12","Micron Size 13","Counts/Channel 13","Micron Size 14","Counts/Channel 14","Micron Size 15","Counts/Channel 15","Micron Size 16","Counts/Channel 16","Micron Size 17","Counts/Channel 17","Micron Size 18","Counts/Channel 18","Micron Size 19","Counts/Channel 19","Micron Size 20","Counts/Channel 20","Micron Size 21","Counts/Channel 21","Micron Size 22","Counts/Channel 22","Micron Size 23","Counts/Channel 23","Micron Size 24","Counts/Channel 24","Micron Size 25","Counts/Channel 25","Micron Size 26","Counts/Channel 26","Micron Size 27","Counts/Channel 27","Micron Size 28","Counts/Channel 28","Micron Size 29","Counts/Channel 29","Micron Size 30","Counts/Channel 30","Micron Size 31","Counts/Channel 31"
"07/01/06","07:00:04","AMMA06",49042.000,"cc",28306.412,6.00,2830.641,1,6,0.100,26389.000,0.200,18197.000,0.300,3306.000,0.500,666.000,1.000,482.000,5.000,2.000
"07/01/06","07:00:10","AMMA06",48735.000,"cc",28335.420,6.00,2833.542,1,6,0.100,26537.000,0.200,17755.000,0.300,3324.000,0.500,690.000,1.000,428.000,5.000,1.000
"07/01/06","07:00:16","AMMA06",48606.000,"cc",28385.967,6.00,2838.597,1,6,0.100,25984.000,0.200,18083.000,0.300,3410.000,0.500,645.000,1.000,483.000,5.000,1.000
"07/01/06","07:00:22","AMMA06",48709.000,"cc",28279.373,6.00,2827.938,1,6,0.100,26187.000,0.200,17862.000,0.300,3500.000,0.500,666.000,1.000,493.000,5.000,1.000
"07/01/06","07:00:28","AMMA06",48848.000,"cc",28292.645,6.00,2829.265,1,6,0.100,26144.000,0.200,18128.000,0.300,3386.000,0.500,719.000,1.000,471.000,5.000,0
"07/01/06","07:00:34","AMMA06",48245.000,"cc",28337.635,6.00,2833.764,1,6,0.100,25790.000,0.200,17903.000,0.300,3470.000,0.500,625.000,1.000,457.000,5.000,0
"07/01/06","07:00:40","AMMA06",48723.000,"cc",28307.598,6.00,2830.760,1,6,0.100,26129.000,0.200,17916.000,0.300,3494.000,0.500,694.000,1.000,489.000,5.000,1.000
"07/01/06","07:00:46","AMMA06",48623.000,"cc",28353.125,6.00,2835.313,1,6,0.100,25992.000,0.200,18099.000,0.300,3371.000,0.500,712.000,1.000,447.000,5.000,2.000
"07/01/06","07:00:52","AMMA06",49138.000,"cc",28250.785,6.00,2825.079,1,6,0.100,26155.000,0.200,18321.000,0.300,3505.000,0.500,683.000,1.000,474.000,5.000,0
"07/01/06","07:00:58","AMMA06",48930.000,"cc",28310.684,6.00,2831.069,1,6,0.100,26010.000,0.200,18330.000,0.300,3448.000,0.500,669.000,1.000,471.000,5.000,2.000
"07/01/06","07:01:04","AMMA06",49273.000,"cc",28296.326,6.00,2829.633,1,6,0.100,26526.000,0.200,18105.000,0.300,3457.000,0.500,708.000,1.000,477.000,5.000,0
"07/01/06","07:01:10","AMMA06",48968.000,"cc",28288.803,6.00,2828.880,1,6,0.100,26206.000,0.200,18213.000,0.300,3391.000,0.500,683.000,1.000,472.000,5.000,3.000
"07/01/06","07:01:16","AMMA06",49131.000,"cc",28350.252,6.00,2835.025,1,6,0.100,26241.000,0.200,18243.000,0.300,3508.000,0.500,687.000,1.000,450.000,5.000,2.000
"07/01/06","07:01:22","AMMA06",48991.000,"cc",28360.398,6.00,2836.040,1,6,0.100,25990.000,0.200,18293.000,0.300,3573.000,0.500,645.000,1.000,489.000,5.000,1.000
"07/01/06","07:01:28","AMMA06",48932.000,"cc",28326.547,6.00,2832.655,1,6,0.100,26107.000,0.200,18169.000,0.300,3512.000,0.500,686.000,1.000,458.000,5.000,0
"07/01/06","07:01:34","AMMA06",48718.000,"cc",28268.994,6.00,2826.900,1,6,0.100,26016.000,0.200,18062.000,0.300,3499.000,0.500,671.000,1.000,470.000,5.000,0
"07/01/06","07:01:40","AMMA06",49811.000,"cc",28328.764,6.00,2832.877,1,6,0.100,26352.000,0.200,18665.000,0.300,3647.000,0.500,654.000,1.000,492.000,5.000,1.000
"07/01/06","07:01:46","AMMA06",48912.000,"cc",28364.740,6.00,2836.474,1,6,0.100,26237.000,0.200,18037.000,0.300,3450.000,0.500,686.000,1.000,502.000,5.000,0
"07/01/06","07:01:52","AMMA06",48957.000,"cc",28339.891,6.00,2833.989,1,6,0.100,26120.000,0.200,18111.000,0.300,3601.000,0.500,671.000,1.000,454.000,5.000,0
"07/01/06","07:01:58","AMMA06",49066.000,"cc",28268.092,6.00,2826.809,1,6,0.100,26170.000,0.200,18374.000,0.300,3372.000,0.500,655.000,1.000,495.000,5.000,0
"07/01/06","07:02:04","AMMA06",49302.000,"cc",28309.629,6.00,2830.963,1,6,0.100,26135.000,0.200,18436.000,0.300,3538.000,0.500,699.000,1.000,493.000,5.000,1.000
"07/01/06","07:02:10","AMMA06",49617.000,"cc",28306.236,6.00,2830.624,1,6,0.100,26669.000,0.200,18223.000,0.300,3508.000,0.500,724.000,1.000,493.000,5.000,0
"07/01/06","07:02:16","AMMA06",49142.000,"cc",28309.715,6.00,2830.972,1,6,0.100,26217.000,0.200,18261.000,0.300,3524.000,0.500,666.000,1.000,473.000,5.000,1.000
"07/01/06","07:02:22","AMMA06",49615.000,"cc",28315.281,6.00,2831.528,1,6,0.100,26462.000,0.200,18403.000,0.300,3508.000,0.500,769.000,1.000,472.000,5.000,1.000
"07/01/06","07:02:28","AMMA06",49603.000,"cc",28328.797,6.00,2832.880,1,6,0.100,26524.000,0.200,18468.000,0.300,3505.000,0.500,649.000,1.000,455.000,5.000,2.000
"07/01/06","07:02:34","AMMA06",50172.000,"cc",28335.023,6.00,2833.502,1,6,0.100,26894.000,0.200,18522.000,0.300,3600.000,0.500,669.000,1.000,486.000,5.000,1.000
"07/01/06","07:02:40","AMMA06",49723.000,"cc",28320.992,6.00,2832.099,1,6,0.100,26560.000,0.200,18452.000,0.300,3542.000,0.500,685.000,1.000,484.000,5.000,0
"07/01/06","07:02:46","AMMA06",49724.000,"cc",28292.879,6.00,2829.288,1,6,0.100,26638.000,0.200,18393.000,0.300,3580.000,0.500,645.000,1.000,467.000,5.000,1.000
"07/01/06","07:02:52","AMMA06",49884.000,"cc",28247.440,6.00,2824.744,1,6,0.100,26724.000,0.200,18447.000,0.300,3546.000,0.500,707.000,1.000,459.000,5.000,1.000
"07/01/06","07:02:58","AMMA06",49881.000,"cc",28309.301,6.00,2830.930,1,6,0.100,26703.000,0.200,18417.000,0.300,3580.000,0.500,720.000,1.000,459.000,5.000,2.000
"07/01/06","07:03:04","AMMA06",50321.000,"cc",28338.387,6.00,2833.839,1,6,0.100,27083.000,0.200,18497.000,0.300,3556.000,0.500,705.000,1.000,478.000,5.000,2.000
"07/01/06","07:03:10","AMMA06",50166.000,"cc",28322.623,6.00,2832.263,1,6,0.100,26725.000,0.200,18772.000,0.300,3481.000,0.500,691.000,1.000,497.000,5.000,0
"07/01/06","07:03:16","AMMA06",50118.000,"cc",28373.373,6.00,2837.337,1,6,0.100,26981.000,0.200,18300.000,0.300,3663.000,0.500,658.000,1.000,516.000,5.000,0
"07/01/06","07:03:22","AMMA06",50075.000,"cc",28361.244,6.00,2836.125,1,6,0.100,26905.000,0.200,18449.000,0.300,3488.000,0.500,694.000,1.000,539.000,5.000,0
"07/01/06","07:03:28","AMMA06",50024.000,"cc",28332.481,6.00,2833.248,1,6,0.100,26846.000,0.200,18407.000,0.300,3610.000,0.500,678.000,1.000,483.000,5.000,0
"07/01/06","07:03:34","AMMA06",50078.000,"cc",28244.195,6.00,2824.420,1,6,0.100,27164.000,0.200,18225.000,0.300,3543.000,0.500,658.000,1.000,485.000,5.000,3.000
"07/01/06","07:03:40","AMMA06",50151.000,"cc",28318.227,6.00,2831.823,1,6,0.100,26891.000,0.200,18495.000,0.300,3505.000,0.500,770.000,1.000,490.000,5.000,0
"07/01/06","07:03:46","AMMA06",50317.000,"cc",28344.170,6.00,2834.417,1,6,0.100,27035.000,0.200,18424.000,0.300,3629.000,0.500,737.000,1.000,492.000,5.000,0
"07/01/06","07:03:52","AMMA06",50669.000,"cc",28293.289,6.00,2829.329,1,6,0.100,27445.000,0.200,18486.000,0.300,3518.000,0.500,731.000,1.000,487.000,5.000,2.000
"07/01/06","07:03:58","AMMA06",50079.000,"cc",28363.621,6.00,2836.362,1,6,0.100,26881.000,0.200,18461.000,0.300,3522.000,0.500,709.000,1.000,506.000,5.000,0
"07/01/06","07:04:04","AMMA06",50266.000,"cc",28315.785,6.00,2831.579,1,6,0.100,27071.000,0.200,18429.000,0.300,3538.000,0.500,749.000,1.000,479.000,5.000,0
"07/01/06","07:04:10","AMMA06",50449.000,"cc",28336.338,6.00,2833.634,1,6,0.100,27211.000,0.200,18591.000,0.300,3457.000,0.500,710.000,1.000,480.000,5.000,0
"07/01/06","07:04:16","AMMA06",50024.000,"cc",28281.313,6.00,2828.131,1,6,0.100,26883.000,0.200,18459.000,0.300,3513.000,0.500,698.000,1.000,471.000,5.000,0
"07/01/06","07:04:22","AMMA06",50222.000,"cc",28306.904,6.00,2830.691,1,6,0.100,27031.000,0.200,18450.000,0.300,3533.000,0.500,748.000,1.000,460.000,5.000,0
"07/01/06","07:04:28","AMMA06",50094.000,"cc",28303.807,6.00,2830.381,1,6,0.100,26986.000,0.200,18504.000,0.300,3454.000,0.500,671.000,1.000,478.000,5.000,1.000
"07/01/06","07:04:34","AMMA06",50175.000,"cc",28304.545,6.00,2830.455,1,6,0.100,27130.000,0.200,18353.000,0.300,3555.000,0.500,670.000,1.000,466.000,5.000,1.000
"07/01/06","07:04:40","AMMA06",50078.000,"cc",28364.725,6.00,2836.473,1,6,0.100,27097.000,0.200,18380.000,0.300,3462.000,0.500,644.000,1.000,495.000,5.000,0
"07/01/06","07:04:46","AMMA06",50259.000,"cc",28296.842,6.00,2829.684,1,6,0.100,27260.000,0.200,18537.000,0.300,3348.000,0.500,639.000,1.000,474.000,5.000,1.000
"07/01/06","07:04:52","AMMA06",49688.000,"cc",28324.566,6.00,2832.457,1,6,0.100,26936.000,0.200,18240.000,0.300,3320.000,0.500,698.000,1.000,494.000,5.000,0
"07/01/06","07:04:58","AMMA06",49994.000,"cc",28324.721,6.00,2832.472,1,6,0.100,27176.000,0.200,18251.000,0.300,3401.000,0.500,660.000,1.000,506.000,5.000,0
"07/01/06","07:05:04","AMMA06",49812.000,"cc",28308.443,6.00,2830.845,1,6,0.100,27098.000,0.200,18124.000,0.300,3395.000,0.500,710.000,1.000,484.000,5.000,1.000
"07/01/06","07:05:10","AMMA06",50066.000,"cc",28283.061,6.00,2828.306,1,6,0.100,27072.000,0.200,18296.000,0.300,3468.000,0.500,719.000,1.000,510.000,5.000,1.000
"07/01/06","07:05:16","AMMA06",49796.000,"cc",28321.139,6.00,2832.114,1,6,0.100,27315.000,0.200,17942.000,0.300,3415.000,0.500,655.000,1.000,468.000,5.000,1.000
"07/01/06","07:05:22","AMMA06",49293.000,"cc",28334.891,6.00,2833.489,1,6,0.100,26883.000,0.200,17841.000,0.300,3411.000,0.500,694.000,1.000,464.000,5.000,0
"07/01/06","07:05:28","AMMA06",49936.000,"cc",28267.797,6.00,2826.780,1,6,0.100,27130.000,0.200,18145.000,0.300,3437.000,0.500,732.000,1.000,492.000,5.000,0
"07/01/06","07:05:34","AMMA06",50692.000,"cc",28319.873,6.00,2831.988,1,6,0.100,27881.000,0.200,18303.000,0.300,3346.000,0.500,693.000,1.000,469.000,5.000,0
"07/01/06","07:05:40","AMMA06",50076.000,"cc",28343.994,6.00,2834.400,1,6,0.100,27568.000,0.200,17928.000,0.300,3431.000,0.500,698.000,1.000,451.000,5.000,0
"07/01/06","07:05:46","AMMA06",50333.000,"cc",28315.068,6.00,2831.507,1,6,0.100,27737.000,0.200,18078.000,0.300,3336.000,0.500,719.000,1.000,461.000,5.000,2.000
"07/01/06","07:05:52","AMMA06",50467.000,"cc",28274.176,6.00,2827.418,1,6,0.100,27907.000,0.200,17977.000,0.300,3428.000,0.500,719.000,1.000,436.000,5.000,0
"07/01/06","07:05:58","AMMA06",50295.000,"cc",28313.338,6.00,2831.334,1,6,0.100,27803.000,0.200,18127.000,0.300,3322.000,0.500,611.000,1.000,431.000,5.000,1.000
"07/01/06","07:06:04","AMMA06",50748.000,"cc",28319.918,6.00,2831.992,1,6,0.100,28027.000,0.200,18223.000,0.300,3353.000,0.500,707.000,1.000,437.000,5.000,1.000
"07/01/06","07:06:10","AMMA06",50424.000,"cc",28324.674,6.00,2832.468,1,6,0.100,27668.000,0.200,18125.000,0.300,3414.000,0.500,715.000,1.000,502.000,5.000,0
"07/01/06","07:06:16","AMMA06",50640.000,"cc",28331.773,6.00,2833.178,1,6,0.100,27891.000,0.200,18306.000,0.300,3321.000,0.500,668.000,1.000,454.000,5.000,0
"07/01/06","07:06:22","AMMA06",50020.000,"cc",28284.147,6.00,2828.415,1,6,0.100,27623.000,0.200,17974.000,0.300,3341.000,0.500,648.000,1.000,434.000,5.000,0
"07/01/06","07:06:28","AMMA06",50191.000,"cc",28365.006,6.00,2836.501,1,6,0.100,27410.000,0.200,18185.000,0.300,3409.000,0.500,704.000,1.000,483.000,5.000,0
"07/01/06","07:06:34","AMMA06",49683.000,"cc",28325.473,6.00,2832.547,1,6,0.100,27261.000,0.200,17856.000,0.300,3428.000,0.500,682.000,1.000,455.000,5.000,1.000
"07/01/06","07:06:40","AMMA06",49716.000,"cc",28304.266,6.00,2830.427,1,6,0.100,27514.000,0.200,17754.000,0.300,3380.000,0.500,629.000,1.000,438.000,5.000,1.000
"07/01/06","07:06:46","AMMA06",49683.000,"cc",28316.383,6.00,2831.638,1,6,0.100,27343.000,0.200,17875.000,0.300,3309.000,0.500,697.000,1.000,459.000,5.000,0
"07/01/06","07:06:52","AMMA06",50125.000,"cc",28324.256,6.00,2832.426,1,6,0.100,27551.000,0.200,18068.000,0.300,3410.000,0.500,655.000,1.000,439.000,5.000,2.000
"07/01/06","07:06:58","AMMA06",50067.000,"cc",28336.631,6.00,2833.663,1,6,0.100,27387.000,0.200,18098.000,0.300,3383.000,0.500,727.000,1.000,471.000,5.000,1.000
"07/01/06","07:07:04","AMMA06",50245.000,"cc",28323.656,6.00,2832.366,1,6,0.100,27556.000,0.200,18123.000,0.300,3438.000,0.500,652.000,1.000,476.000,5.000,0
"07/01/06","07:07:10","AMMA06",50157.000,"cc",28298.789,6.00,2829.879,1,6,0.100,27271.000,0.200,18329.000,0.300,3452.000,0.500,664.000,1.000,441.000,5.000,0
"07/01/06","07:07:16","AMMA06",50178.000,"cc",28298.600,6.00,2829.860,1,6,0.100,27602.000,0.200,17958.000,0.300,3474.000,0.500,680.000,1.000,464.000,5.000,0
"07/01/06","07:07:22","AMMA06",50386.000,"cc",28319.606,6.00,2831.961,1,6,0.100,27447.000,0.200,18247.000,0.300,3518.000,0.500,697.000,1.000,476.000,5.000,1.000
"07/01/06","07:07:28","AMMA06",50477.000,"cc",28287.441,6.00,2828.744,1,6,0.100,27651.000,0.200,18226.000,0.300,3491.000,0.500,666.000,1.000,443.000,5.000,0
"07/01/06","07:07:34","AMMA06",50475.000,"cc",28400.553,6.00,2840.055,1,6,0.100,27573.000,0.200,18351.000,0.300,3397.000,0.500,692.000,1.000,462.000,5.000,0
"07/01/06","07:07:40","AMMA06",50545.000,"cc",28329.301,6.00,2832.930,1,6,0.100,27786.000,0.200,18099.000,0.300,3502.000,0.500,706.000,1.000,452.000,5.000,0
"07/01/06","07:07:46","AMMA06",50906.000,"cc",28302.318,6.00,2830.232,1,6,0.100,27926.000,0.200,18362.000,0.300,3466.000,0.500,672.000,1.000,479.000,5.000,1.000
"07/01/06","07:07:52","AMMA06",50428.000,"cc",28342.311,6.00,2834.231,1,6,0.100,27708.000,0.200,18118.000,0.300,3422.000,0.500,693.000,1.000,487.000,5.000,0
"07/01/06","07:07:58","AMMA06",50443.000,"cc",28267.313,6.00,2826.731,1,6,0.100,27732.000,0.200,17974.000,0.300,3539.000,0.500,691.000,1.000,506.000,5.000,1.000
"07/01/06","07:08:04","AMMA06",50642.000,"cc",28313.404,6.00,2831.341,1,6,0.100,27631.000,0.200,18315.000,0.300,3553.000,0.500,672.000,1.000,471.000,5.000,0
"07/01/06","07:08:10","AMMA06",50845.000,"cc",28370.533,6.00,2837.054,1,6,0.100,27755.000,0.200,18466.000,0.300,3482.000,0.500,688.000,1.000,454.000,5.000,0
"07/01/06","07:08:16","AMMA06",51293.000,"cc",28323.746,6.00,2832.375,1,6,0.100,28349.000,0.200,18316.000,0.300,3492.000,0.500,654.000,1.000,480.000,5.000,2.000
"07/01/06","07:08:22","AMMA06",51143.000,"cc",28321.666,6.00,2832.167,1,6,0.100,27897.000,0.200,18610.000,0.300,3530.000,0.500,650.000,1.000,456.000,5.000,0
"07/01/06","07:08:28","AMMA06",50936.000,"cc",28260.545,6.00,2826.055,1,6,0.100,28177.000,0.200,18101.000,0.300,3515.000,0.500,666.000,1.000,477.000,5.000,0
"07/01/06","07:08:34","AMMA06",51290.000,"cc",28331.336,6.00,2833.134,1,6,0.100,28198.000,0.200,18446.000,0.300,3470.000,0.500,683.000,1.000,493.000,5.000,0
"07/01/06","07:08:40","AMMA06",50789.000,"cc",28338.969,6.00,2833.897,1,6,0.100,27951.000,0.200,18182.000,0.300,3473.000,0.500,709.000,1.000,474.000,5.000,0
"07/01/06","07:08:46","AMMA06",51260.000,"cc",28341.895,6.00,2834.190,1,6,0.100,28368.000,0.200,18358.000,0.300,3406.000,0.500,692.000,1.000,435.000,5.000,1.000
"07/01/06","07:08:52","AMMA06",50952.000,"cc",28279.916,6.00,2827.992,1,6,0.100,28133.000,0.200,18275.000,0.300,3424.000,0.500,677.000,1.000,443.000,5.000,0
"07/01/06","07:08:58","AMMA06",51608.000,"cc",28274.688,6.00,2827.469,1,6,0.100,28445.000,0.200,18455.000,0.300,3565.000,0.500,654.000,1.000,489.000,5.000,0
"07/01/06","07:09:04","AMMA06",51548.000,"cc",28299.330,6.00,2829.933,1,6,0.100,28629.000,0.200,18308.000,0.300,3436.000,0.500,741.000,1.000,434.000,5.000,0
"07/01/06","07:09:10","AMMA06",51416.000,"cc",28324.264,6.00,2832.427,1,6,0.100,28393.000,0.200,18462.000,0.300,3394.000,0.500,677.000,1.000,490.000,5.000,0
"07/01/06","07:09:16","AMMA06",51345.000,"cc",28308.309,6.00,2830.831,1,6,0.100,28506.000,0.200,18157.000,0.300,3497.000,0.500,693.000,1.000,492.000,5.000,0
"07/01/06","07:09:22","AMMA06",51694.000,"cc",28352.744,6.00,2835.275,1,6,0.100,28899.000,0.200,18287.000,0.300,3378.000,0.500,674.000,1.000,455.000,5.000,1.000
"07/01/06","07:09:28","AMMA06",51785.000,"cc",28341.865,6.00,2834.187,1,6,0.100,28787.000,0.200,18224.000,0.300,3617.000,0.500,687.000,1.000,468.000,5.000,2.000
"07/01/06","07:09:34","AMMA06",52042.000,"cc",28307.953,6.00,2830.795,1,6,0.100,28974.000,0.200,18358.000,0.300,3525.000,0.500,673.000,1.000,511.000,5.000,1.000
"07/01/06","07:09:40","AMMA06",51437.000,"cc",28343.115,6.00,2834.312,1,6,0.100,28707.000,0.200,18207.000,0.300,3384.000,0.500,670.000,1.000,468.000,5.000,1.000
"07/01/06","07:09:46","AMMA06",51465.000,"cc",28329.549,6.00,2832.955,1,6,0.100,28589.000,0.200,18223.000,0.300,3490.000,0.500,689.000,1.000,473.000,5.000,1.000
"07/01/06","07:09:52","AMMA06",51709.000,"cc",28271.365,6.00,2827.137,1,6,0.100,28804.000,0.200,18319.000,0.300,3465.000,0.500,645.000,1.000,476.000,5.000,0
"07/01/06","07:09:58","AMMA06",51840.000,"cc",28261.113,6.00,2826.112,1,6,0.100,28824.000,0.200,18407.000,0.300,3535.000,0.500,628.000,1.000,445.000,5.000,1.000
"07/01/06","07:10:04","AMMA06",51551.000,"cc",28304.303,6.00,2830.430,1,6,0.100,28767.000,0.200,18342.000,0.300,3330.000,0.500,638.000,1.000,473.000,5.000,1.000
"07/01/06","07:10:10","AMMA06",51425.000,"cc",28334.049,6.00,2833.405,1,6,0.100,28900.000,0.200,18023.000,0.300,3446.000,0.500,638.000,1.000,417.000,5.000,1.000
"07/01/06","07:10:16","AMMA06",51514.000,"cc",28316.207,6.00,2831.621,1,6,0.100,28911.000,0.200,17971.000,0.300,3514.000,0.500,648.000,1.000,470.000,5.000,0
"07/01/06","07:10:22","AMMA06",51244.000,"cc",28344.828,6.00,2834.483,1,6,0.100,28631.000,0.200,18153.000,0.300,3321.000,0.500,681.000,1.000,458.000,5.000,0
"07/01/06","07:10:28","AMMA06",52389.000,"cc",28323.629,6.00,2832.363,1,6,0.100,29670.000,0.200,18154.000,0.300,3414.000,0.500,667.000,1.000,484.000,5.000,0
"07/01/06","07:10:34","AMMA06",52673.000,"cc",28257.699,6.00,2825.770,1,6,0.100,29845.000,0.200,18254.000,0.300,3457.000,0.500,669.000,1.000,448.000,5.000,0
"07/01/06","07:10:40","AMMA06",52421.000,"cc",28363.236,6.00,2836.324,1,6,0.100,29527.000,0.200,18391.000,0.300,3356.000,0.500,672.000,1.000,474.000,5.000,1.000
"07/01/06","07:10:46","AMMA06",52399.000,"cc",28318.885,6.00,2831.889,1,6,0.100,29700.000,0.200,18181.000,0.300,3393.000,0.500,642.000,1.000,483.000,5.000,0
"07/01/06","07:10:52","AMMA06",52036.000,"cc",28306.986,6.00,2830.699,1,6,0.100,29383.000,0.200,18184.000,0.300,3355.000,0.500,669.000,1.000,444.000,5.000,1.000
"07/01/06","07:10:58","AMMA06",52070.000,"cc",28308.287,6.00,2830.829,1,6,0.100,29681.000,0.200,17914.000,0.300,3333.000,0.500,684.000,1.000,458.000,5.000,0
"07/01/06","07:11:04","AMMA06",52548.000,"cc",28297.018,6.00,2829.702,1,6,0.100,29796.000,0.200,18290.000,0.300,3343.000,0.500,668.000,1.000,450.000,5.000,1.000
"07/01/06","07:11:10","AMMA06",52603.000,"cc",28284.795,6.00,2828.480,1,6,0.100,29841.000,0.200,18177.000,0.300,3441.000,0.500,700.000,1.000,444.000,5.000,0
"07/01/06","07:11:16","AMMA06",52343.000,"cc",28344.385,6.00,2834.439,1,6,0.100,29827.000,0.200,18148.000,0.300,3266.000,0.500,671.000,1.000,431.000,5.000,0
"07/01/06","07:11:22","AMMA06",52862.000,"cc",28306.211,6.00,2830.621,1,6,0.100,30174.000,0.200,18173.000,0.300,3382.000,0.500,729.000,1.000,404.000,5.000,0
"07/01/06","07:11:28","AMMA06",52558.000,"cc",28342.973,6.00,2834.297,1,6,0.100,30153.000,0.200,17881.000,0.300,3417.000,0.500,671.000,1.000,435.000,5.000,1.000
"07/01/06","07:11:34","AMMA06",52535.000,"cc",28309.482,6.00,2830.949,1,6,0.100,29820.000,0.200,18282.000,0.300,3300.000,0.500,696.000,1.000,437.000,5.000,0
"07/01/06","07:11:40","AMMA06",52832.000,"cc",28306.004,6.00,2830.601,1,6,0.100,30122.000,0.200,18227.000,0.300,3313.000,0.500,697.000,1.000,473.000,5.000,0
"07/01/06","07:11:46","AMMA06",52291.000,"cc",28326.211,6.00,2832.621,1,6,0.100,29999.000,0.200,17888.000,0.300,3254.000,0.500,707.000,1.000,443.000,5.000,0
"07/01/06","07:11:52","AMMA06",52682.000,"cc",28268.795,6.00,2826.880,1,6,0.100,30185.000,0.200,18033.000,0.300,3349.000,0.500,676.000,1.000,439.000,5.000,0
"07/01/06","07:11:58","AMMA06",53486.000,"cc",28357.139,6.00,2835.714,1,6,0.100,30726.000,0.200,18227.000,0.300,3334.000,0.500,695.000,1.000,504.000,5.000,0
"07/01/06","07:12:04","AMMA06",53027.000,"cc",28332.330,6.00,2833.233,1,6,0.100,30364.000,0.200,18311.000,0.300,3234.000,0.500,676.000,1.000,442.000,5.000,0
"07/01/06","07:12:10","AMMA06",53142.000,"cc",28312.133,6.00,2831.213,1,6,0.100,30535.000,0.200,18121.000,0.300,3265.000,0.500,729.000,1.000,492.000,5.000,0
"07/01/06","07:12:16","AMMA06",53070.000,"cc",28314.020,6.00,2831.402,1,6,0.100,30539.000,0.200,18028.000,0.300,3352.000,0.500,690.000,1.000,460.000,5.000,1.000
"07/01/06","07:12:22","AMMA06",53514.000,"cc",28339.053,6.00,2833.906,1,6,0.100,30591.000,0.200,18455.000,0.300,3367.000,0.500,677.000,1.000,424.000,5.000,0
"07/01/06","07:12:28","AMMA06",53079.000,"cc",28319.256,6.00,2831.926,1,6,0.100,30437.000,0.200,18091.000,0.300,3386.000,0.500,693.000,1.000,472.000,5.000,0
"07/01/06","07:12:34","AMMA06",53066.000,"cc",28297.676,6.00,2829.768,1,6,0.100,30216.000,0.200,18363.000,0.300,3297.000,0.500,708.000,1.000,481.000,5.000,1.000
"07/01/06","07:12:40","AMMA06",53091.000,"cc",28357.445,6.00,2835.745,1,6,0.100,30360.000,0.200,18184.000,0.300,3417.000,0.500,708.000,1.000,422.000,5.000,0
"07/01/06","07:12:46","AMMA06",53310.000,"cc",28350.184,6.00,2835.019,1,6,0.100,30308.000,0.200,18387.000,0.300,3478.000,0.500,644.000,1.000,493.000,5.000,0
"07/01/06","07:12:52","AMMA06",53408.000,"cc",28345.102,6.00,2834.510,1,6,0.100,30441.000,0.200,18522.000,0.300,3332.000,0.500,643.000,1.000,470.000,5.000,0
"07/01/06","07:12:58","AMMA06",53017.000,"cc",28326.406,6.00,2832.641,1,6,0.100,30303.000,0.200,18116.000,0.300,3402.000,0.500,702.000,1.000,493.000,5.000,1.000
"07/01/06","07:13:04","AMMA06",53025.000,"cc",28255.191,6.00,2825.519,1,6,0.100,30104.000,0.200,18327.000,0.300,3397.000,0.500,691.000,1.000,503.000,5.000,3.000
"07/01/06","07:13:10","AMMA06",53470.000,"cc",28324.766,6.00,2832.477,1,6,0.100,30529.000,0.200,18300.000,0.300,3438.000,0.500,701.000,1.000,502.000,5.000,0
"07/01/06","07:13:16","AMMA06",53943.000,"cc",28333.990,6.00,2833.399,1,6,0.100,30874.000,0.200,18399.000,0.300,3474.000,0.500,738.000,1.000,457.000,5.000,1.000
"07/01/06","07:13:22","AMMA06",53741.000,"cc",28287.588,6.00,2828.759,1,6,0.100,30476.000,0.200,18580.000,0.300,3498.000,0.500,710.000,1.000,477.000,5.000,0
"07/01/06","07:13:28","AMMA06",53614.000,"cc",28301.363,6.00,2830.137,1,6,0.100,30791.000,0.200,18154.000,0.300,3463.000,0.500,702.000,1.000,504.000,5.000,0
"07/01/06","07:13:34","AMMA06",53679.000,"cc",28334.518,6.00,2833.452,1,6,0.100,30440.000,0.200,18520.000,0.300,3576.000,0.500,675.000,1.000,467.000,5.000,1.000
"07/01/06","07:13:40","AMMA06",53175.000,"cc",28324.293,6.00,2832.429,1,6,0.100,30234.000,0.200,18271.000,0.300,3528.000,0.500,665.000,1.000,476.000,5.000,1.000
"07/01/06","07:13:46","AMMA06",53819.000,"cc",28305.713,6.00,2830.572,1,6,0.100,30767.000,0.200,18383.000,0.300,3524.000,0.500,685.000,1.000,458.000,5.000,2.000
"07/01/06","07:13:52","AMMA06",53735.000,"cc",28345.992,6.00,2834.599,1,6,0.100,30454.000,0.200,18605.000,0.300,3477.000,0.500,716.000,1.000,483.000,5.000,0
"07/01/06","07:13:58","AMMA06",53658.000,"cc",28342.469,6.00,2834.247,1,6,0.100,30457.000,0.200,18551.000,0.300,3514.000,0.500,686.000,1.000,449.000,5.000,1.000
"07/01/06","07:14:04","AMMA06",54043.000,"cc",28276.088,6.00,2827.609,1,6,0.100,30717.000,0.200,18569.000,0.300,3633.000,0.500,667.000,1.000,457.000,5.000,0
"07/01/06","07:14:10","AMMA06",54180.000,"cc",28347.100,6.00,2834.710,1,6,0.100,30815.000,0.200,18617.000,0.300,3548.000,0.500,702.000,1.000,497.000,5.000,1.000